Location: Asheville, NC
(35.6000°N, 82.5500°W)
Time: 01:39:40
(UTC-05:00)

Tiangong 2 - Pass Details

Date: 10 February 2018
Orbit: 384 x 388 km, 42.8° (Epoch: 21 February)

Event Time Altitude Azimuth Distance (km) Brightness Sun altitude
Rises 20:04:31 0° 259° (WSW) 2,251 6.3 -24.3°
Reaches altitude 10° 20:06:39 10° 266° (W) 1,399 5.0 -24.7°
Enters shadow 20:08:21 26° 284° (WNW) 784 3.2 -25.1°
